Geneva, Switzerland

3:47 AM CEST on June 24, 2017 (GMT +0200)
Cointrin

Weather History for LSGG - October, 2013

Change the Weather History Date:

Tuesday, October 15, 2013

  Actual Average Record
Temperature  
Mean Temperature 54 °F -  
Max Temperature 57 °F 52 °F 73 °F (2008)
Min Temperature 50 °F 38 °F 35 °F (2012)
Degree Days  
Heating Degree Days 12    
Growing Degree Days 4 (Base 50)    
Moisture  
Dew Point 52 °F    
Average Humidity 89    
Maximum Humidity 100    
Minimum Humidity 70    
Precipitation  
Precipitation 0.12 in 0.11 in - ()
Sea Level Pressure  
Sea Level Pressure 30.00 in    
Wind  
Wind Speed 6 mph ()    
Max Wind Speed 16 mph    
Max Gust Speed -    
Visibility 6.5 miles    
Events Fog , Rain    
Averages and records for this station are not official NWS values.
T = Trace of Precipitation, MM = Missing Value Source: Averaged Metar Reports

Daily Weather History Graph

Daily Weather History Graph

Search for Another Location

Airport or City:

Trip Planner

Search our weather history database for the weather conditions in past years. The results will help you decide how hot, cold, wet, or windy it might be!

Date:

Astronomy

Oct. 15, 2013 Rise Set
Actual Time 7:52 AM CEST 6:49 PM CEST
Civil Twilight 7:22 AM CEST 7:19 PM CEST
Nautical Twilight 6:47 AM CEST 7:54 PM CEST
Astronomical Twilight 6:12 AM CEST 8:28 PM CEST
Moon 4:54 PM CEST (10/15) 3:45 AM CEST (10/15)
Length of Visible Light 11h 56m
Length of Day
10h 56m
Waxing Gibbous, 85% of the Moon is Illuminated
Oct 15
Waxing Gibbous
Oct 19
Full
Oct 27
Last Quarter
Nov 3
New
Nov 10
First Quarter

Hourly Weather History & Observations

Time (CEST) Temp. Dew Point Humidity Pressure Visibility Wind Dir Wind Speed Gust Speed Precip Events Conditions
12:00 AM 51 °F 50 °F 95% 30.09 in - ENE 1.2 mph - -  
12:20 AM 51.8 °F 51.8 °F 100% 30.06 in 6.2 mi Variable 1.2 mph - N/A Fog Shallow Fog
12:50 AM 51.8 °F 51.8 °F 100% 30.06 in 6.2 mi West 4.6 mph - N/A   Mostly Cloudy
1:00 AM 52 °F 50 °F 90% 30.08 in - West 5.8 mph - -  
1:20 AM 51.8 °F 51.8 °F 100% 30.06 in 6.2 mi WSW 6.9 mph - N/A   Mostly Cloudy
1:50 AM 51.8 °F 51.8 °F 100% 30.06 in 6.2 mi West 4.6 mph - N/A   Mostly Cloudy
2:00 AM 53 °F 50 °F 87% 30.07 in 16 mi WSW 4.6 mph - -   Partly Cloudy
2:20 AM 51.8 °F 51.8 °F 100% 30.06 in 6.2 mi WSW 4.6 mph - N/A Rain Light Rain
2:50 AM 53.6 °F 53.6 °F 100% 30.06 in 6.2 mi WSW 4.6 mph - N/A   Mostly Cloudy
3:00 AM 54 °F 51 °F 88% 30.07 in - WSW 4.6 mph - -  
3:50 AM 53.6 °F 51.8 °F 94% 30.04 in 6.2 mi WSW 4.6 mph - N/A   Mostly Cloudy
4:20 AM 55.4 °F 51.8 °F 88% 30.04 in 6.2 mi SSW 10.4 mph - N/A   Mostly Cloudy
4:50 AM 55.4 °F 51.8 °F 88% 30.04 in 6.2 mi SSW 9.2 mph - N/A   Mostly Cloudy
5:20 AM 53.6 °F 51.8 °F 94% 30.04 in 6.2 mi SW 4.6 mph - N/A   Mostly Cloudy
5:50 AM 55.4 °F 51.8 °F 88% 30.04 in 6.2 mi SW 4.6 mph - N/A   Mostly Cloudy
6:00 AM 55 °F 51 °F 80% 30.04 in - WSW 5.8 mph - -  
6:20 AM 55.4 °F 51.8 °F 88% 30.04 in 6.2 mi SW 6.9 mph - N/A   Mostly Cloudy
6:50 AM 55.4 °F 51.8 °F 88% 30.04 in 6.2 mi SSW 11.5 mph - N/A   Mostly Cloudy
7:00 AM 55 °F 50 °F 77% 30.03 in - SSW 10.4 mph - -  
7:20 AM 55.4 °F 51.8 °F 88% 30.04 in 6.2 mi SSW 11.5 mph - N/A   Mostly Cloudy
7:50 AM 55.4 °F 51.8 °F 88% 30.01 in 6.2 mi SSW 10.4 mph - N/A   Mostly Cloudy
8:00 AM 56 °F 50 °F 74% 30.02 in 22 mi SSW 10.4 mph - -   Partly Cloudy
8:20 AM 55.4 °F 51.8 °F 88% 30.04 in 6.2 mi SW 8.1 mph - N/A   Mostly Cloudy
8:50 AM 55.4 °F 51.8 °F 88% 30.04 in 6.2 mi WSW 5.8 mph - N/A   Mostly Cloudy
9:00 AM 55 °F 51 °F 81% 30.04 in - SW 6.9 mph - -  
9:20 AM 55.4 °F 51.8 °F 88% 30.04 in 6.2 mi WSW 5.8 mph - N/A   Mostly Cloudy
9:50 AM 57.2 °F 51.8 °F 82% 30.04 in 6.2 mi SW 5.8 mph - N/A   Mostly Cloudy
10:00 AM 56 °F 51 °F 77% 30.03 in - SSW 8.1 mph - -  
10:20 AM 57.2 °F 51.8 °F 82% 30.04 in 6.2 mi SSW 9.2 mph - N/A   Mostly Cloudy
10:50 AM 57.2 °F 51.8 °F 82% 30.04 in 6.2 mi SW 12.7 mph - N/A   Mostly Cloudy
11:20 AM 57.2 °F 51.8 °F 82% 30.04 in 6.2 mi SSW 15.0 mph - N/A Rain Light Rain
11:50 AM 57.2 °F 53.6 °F 88% 30.01 in 6.2 mi WSW 11.5 mph - N/A   Mostly Cloudy
12:00 PM 56 °F 51 °F 78% 30.02 in - WSW 13.8 mph - -  
12:20 PM 57.2 °F 51.8 °F 82% 30.01 in 6.2 mi SW 16.1 mph - N/A   Mostly Cloudy
12:50 PM 55.4 °F 51.8 °F 88% 30.04 in 6.2 mi SW 13.8 mph - N/A Rain Light Rain
1:00 PM 56 °F 52 °F 80% 30.01 in - SW 13.8 mph - -  
1:20 PM 57.2 °F 51.8 °F 82% 30.01 in 6.2 mi WSW 9.2 mph - N/A   Mostly Cloudy
1:50 PM 57.2 °F 51.8 °F 82% 30.01 in 6.2 mi WSW 10.4 mph - N/A   Mostly Cloudy
2:00 PM 57 °F 51 °F 74% 29.99 in 19 mi WSW 9.2 mph - -   Partly Cloudy
2:20 PM 57.2 °F 51.8 °F 82% 29.98 in 6.2 mi WSW 9.2 mph - N/A   Mostly Cloudy
2:50 PM 55.4 °F 51.8 °F 88% 29.98 in 6.2 mi West 9.2 mph - N/A   Mostly Cloudy
3:00 PM 57 °F 50 °F 70% 29.97 in - West 8.1 mph - -  
3:20 PM 57.2 °F 51.8 °F 82% 29.98 in 6.2 mi WSW 8.1 mph - N/A   Mostly Cloudy
3:50 PM 55.4 °F 51.8 °F 88% 29.95 in 4.3 mi West 9.2 mph - N/A Rain Light Rain Showers
4:00 PM 55 °F 51 °F 81% 29.96 in - West 9.2 mph - -  
4:20 PM 55.4 °F 51.8 °F 88% 29.95 in 4.3 mi West 8.1 mph - N/A Rain Light Rain Showers
4:50 PM 53.6 °F 53.6 °F 100% 29.95 in 6.2 mi West 6.9 mph - N/A Rain Light Rain Showers
5:20 PM 53.6 °F 53.6 °F 100% 29.95 in 5.0 mi WSW 9.2 mph - N/A Rain Light Rain Showers
5:50 PM 55.4 °F 53.6 °F 94% 29.95 in 6.2 mi West 5.8 mph - N/A Rain Light Rain
6:00 PM 54 °F 52 °F 90% 29.94 in - West 5.8 mph - -  
6:20 PM 53.6 °F 53.6 °F 100% 29.95 in 6.2 mi WSW 5.8 mph - N/A Rain Light Rain
6:50 PM 53.6 °F 53.6 °F 100% 29.95 in 6.2 mi WSW 6.9 mph - N/A Rain Light Rain
7:00 PM 54 °F 51 °F 87% 29.94 in - WSW 8.1 mph - -  
7:20 PM 53.6 °F 53.6 °F 100% 29.95 in 5.6 mi WSW 6.9 mph - N/A Rain Light Rain
7:50 PM 53.6 °F 51.8 °F 94% 29.95 in 6.2 mi WSW 6.9 mph - N/A Rain Light Rain
8:00 PM 54 °F 51 °F 86% 29.95 in 6 mi WSW 6.9 mph - - Rain Light Rain
8:20 PM 53.6 °F 51.8 °F 94% 29.95 in 6.2 mi WSW 5.8 mph - N/A Rain Light Rain
8:50 PM 53.6 °F 51.8 °F 94% 29.95 in 6.2 mi WSW 5.8 mph - N/A Rain Light Rain
9:00 PM 54 °F 51 °F 87% 29.94 in - WSW 4.6 mph - -  
9:20 PM 53.6 °F 51.8 °F 94% 29.92 in 6.2 mi WSW 5.8 mph - N/A   Mostly Cloudy
9:50 PM 53.6 °F 51.8 °F 94% 29.92 in 6.2 mi WSW 6.9 mph - N/A   Mostly Cloudy
10:00 PM 54 °F 51 °F 88% 29.93 in - WSW 6.9 mph - -  
10:20 PM 53.6 °F 53.6 °F 100% 29.92 in 6.2 mi WSW 8.1 mph - N/A   Mostly Cloudy
10:50 PM 53.6 °F 53.6 °F 100% 29.92 in 6.2 mi SW 9.2 mph - N/A Rain Light Rain
11:20 PM 53.6 °F 51.8 °F 94% 29.92 in 6.2 mi WSW 10.4 mph - N/A Rain Light Rain
11:50 PM 53.6 °F 51.8 °F 94% 29.92 in 6.2 mi WSW 9.2 mph - N/A Rain Light Rain